[[[{"header":{"parameterUnit":"kt","parameterCategory":2,"dx":1,"dy":1,"la1":30.253999710083008,"la2":30.299108505249023,"lo1":-89.0895004272461,"lo2":-89.04439544677734,"nx":28,"ny":28,"refTime":"2022-09-22T21:00:00:Z","depth":0,"parameterNumber":1,"parameterNumberName":"U-component_of_WINDS"},"data":[-5.5664,-5.5721,-5.5753,-5.5832,-5.5874,-5.5933,-5.5964,-5.6007,-5.6049,-5.6121,-5.6167,-5.6204,-5.6256,-5.6318,-5.6369,-5.6384,-5.6403,-5.6399,-5.6417,-5.6406,-5.6406,-5.6407,-5.6396,-5.6403,-5.6403,-5.6424,-5.6424,-5.6424,-5.5648,-5.5691,-5.5743,-5.5815,-5.5859,-5.5881,-5.5939,-5.5974,-5.6026,-5.6078,-5.6126,-5.6192,-5.6247,-5.6303,-5.6361,-5.6386,-5.6399,-5.6399,-5.6398,-5.6405,-5.6395,-5.6383,-5.6387,-5.6387,-5.6387,-5.6387,-5.6387,-5.6387,-5.5629,-5.5663,-5.5726,-5.5783,-5.5828,-5.5876,-5.5913,-5.5958,-5.6008,-5.6075,-5.6103,-5.6162,-5.6219,-5.6305,-5.6341,-5.6386,-5.6392,-5.6401,-5.6404,-5.6405,-5.6402,-5.6365,-5.6397,-5.6398,-5.6398,-5.6398,-5.6398,0,-5.5625,-5.565,-5.5703,-5.5766,-5.5809,-5.586,-5.5913,-5.5936,-5.5999,-5.6038,-5.6096,-5.6135,-5.6211,-5.6268,-5.633,-5.6366,-5.6392,-5.6399,-5.6406,-5.6393,-5.6372,-5.6383,-5.6363,-5.6398,-5.6398,-5.6398,-5.6398,-5.6398,-5.5607,-5.5644,-5.5726,-5.5759,-5.5797,-5.5849,-5.5886,-5.594,-5.5977,-5.6048,-5.6074,-5.6133,-5.6183,-5.627,-5.6322,-5.6378,-5.6391,-5.6401,-5.64,-5.6385,-5.639,-5.6387,-5.639,-5.64,-5.6399,-5.6399,-5.6399,0,-5.5593,-5.5648,-5.5715,-5.5794,-5.5815,-5.585,-5.5916,-5.5952,-5.5993,-5.6047,-5.6063,-5.6127,-5.6183,-5.6234,-5.6308,-5.6333,-5.6385,-5.6398,-5.6365,-5.637,-5.6383,-5.6381,-5.642,-5.6427,-5.6421,-5.6421,-5.6421,0,-5.5598,-5.5645,-5.5724,-5.576,-5.5812,-5.5867,-5.5916,-5.5957,-5.601,-5.6054,-5.6093,-5.6132,-5.6193,-5.6238,-5.6275,-5.6328,-5.6342,-5.6364,-5.6373,-5.636,-5.6357,-5.638,-5.6379,-5.6394,-5.6394,-5.6394,-5.6393,0,-5.5571,-5.5669,-5.5729,-5.576,-5.585,-5.5876,-5.5914,-5.5975,-5.6011,-5.6066,-5.609,-5.6149,-5.6182,-5.6226,-5.6273,-5.627,-5.6339,-5.6345,-5.6361,-5.636,-5.6374,-5.6373,-5.6394,-5.6393,-5.6393,-5.6393,-5.6393,0,-5.5584,-5.5642,-5.5722,-5.5797,-5.5821,-5.586,-5.5924,-5.597,-5.6031,-5.6058,-5.6102,-5.6135,-5.6187,-5.6188,-5.626,-5.6243,-5.6272,-5.6298,-5.63,-5.6308,-5.6309,-5.6313,-5.6329,-5.6332,-5.6314,-5.6313,-5.6313,0,-5.5536,-5.5632,-5.5682,-5.5756,-5.5807,-5.585,-5.5894,-5.5948,-5.5988,-5.6036,-5.6079,-5.6133,-5.6146,-5.617,-5.6199,-5.6245,-5.6267,-5.6244,-5.6308,-5.631,-5.629,-5.6306,-5.6295,-5.632,-5.6305,-5.6306,-5.6306,0,-5.5506,-5.5619,-5.5629,-5.5667,-5.5751,-5.5795,-5.5846,-5.5913,-5.5942,-5.6,-5.6042,-5.612,-5.6133,-5.6173,-5.6207,-5.6234,-5.6254,-5.6243,-5.6246,-5.6242,-5.6306,-5.6296,-5.63,-5.627,-5.6271,-5.6272,-5.63,0,-5.5511,-5.5568,-5.5599,-5.5683,-5.5726,-5.5777,-5.5837,-5.5873,-5.5902,-5.5944,-5.6009,-5.6068,-5.6136,-5.6155,-5.6184,-5.623,-5.6231,-5.6244,-5.625,-5.626,-5.627,-5.6275,-5.6229,-5.6229,-5.623,-5.623,0,0,-5.545,-5.5534,-5.5589,-5.5643,-5.5683,-5.5729,-5.5777,-5.5821,-5.5908,-5.5933,-5.5937,-5.6056,-5.6104,-5.6176,-5.6184,-5.6212,-5.6225,-5.622,-5.6255,-5.6257,-5.626,-5.627,-5.6274,-5.6231,-5.6231,-5.6231,-5.6231,0,-5.5465,-5.5518,-5.5568,-5.5616,-5.569,-5.5734,-5.5745,-5.5826,-5.5856,-5.5922,-5.5957,-5.6003,-5.6098,-5.6144,-5.6179,-5.6213,-5.6236,-5.6229,-5.6226,-5.6257,-5.6259,-5.6261,-5.6271,-5.6275,-5.6232,-5.6232,-5.6232,0,-5.5445,-5.5507,-5.5538,-5.5634,-5.5683,-5.5736,-5.5758,-5.5814,-5.5853,-5.59,-5.5964,-5.6005,-5.6072,-5.6134,-5.6164,-5.6168,-5.6243,-5.6231,-5.623,-5.6235,-5.6267,-5.6269,-5.6271,-5.6244,-5.6244,-5.6244,0,0,-5.545,-5.5505,-5.5589,-5.5642,-5.5671,-5.5737,-5.5772,-5.5806,-5.5868,-5.5892,-5.5946,-5.6003,-5.6058,-5.6093,-5.6149,-5.6209,-5.6226,-5.623,-5.623,-5.6229,-5.6233,-5.6265,-5.6267,-5.6243,-5.6243,-5.6243,0,0,-5.5452,-5.5552,-5.5572,-5.5643,-5.57,-5.5786,-5.5815,-5.5841,-5.5898,-5.5899,-5.5957,-5.5975,-5.6034,-5.6073,-5.6056,-5.6152,-5.6156,-5.6162,-5.6124,-5.6124,-5.6124,-5.6113,-5.6086,0,0,0,0,0,-5.5499,-5.554,-5.5557,-5.5578,-5.57,-5.5776,-5.5792,-5.5843,-5.5845,-5.5866,-5.5915,-5.5939,-5.6076,-5.6062,-5.6081,-5.6099,-5.6234,-5.6236,-5.6237,-5.6203,-5.6203,-5.6202,0,0,0,0,0,0,-5.5508,-5.5534,-5.5556,-5.5643,-5.5671,-5.5775,-5.579,-5.5804,-5.5844,-5.5847,-5.5929,-5.5942,-5.5985,-5.6056,-5.6072,-5.6089,-5.6081,-5.6235,-5.6236,-5.6237,-5.6203,-5.6203,-5.6202,0,0,0,0,0,-5.5515,-5.5536,-5.572,-5.5642,-5.5667,-5.5744,-5.5789,-5.5801,-5.5832,-5.5909,-5.5923,-5.5867,-5.5984,-5.6001,-5.6066,-5.608,-5.607,-5.6076,-5.6235,-5.6237,-5.6238,-5.6203,0,0,0,0,0,0,-5.5521,-5.5547,-5.5726,-5.5735,-5.5632,-5.5739,-5.5758,-5.5798,-5.5893,-5.5907,-5.585,-5.5852,-5.5984,-5.5998,-5.601,-5.6074,-5.6061,-5.6067,-5.6071,-5.6236,-5.6237,-5.6238,0,0,0,0,0,0,-5.5536,-5.5555,-5.573,-5.5715,-5.5722,-5.5734,-5.5751,-5.5813,-5.5893,-5.5828,-5.5832,-5.585,-5.5964,-5.5995,-5.6005,-5.6101,-5.6055,-5.606,-5.6064,-5.6067,-5.6237,-5.6238,0,0,0,0,0,0,-5.5545,-5.5561,-5.5712,-5.5718,-5.5725,-5.5832,-5.579,-5.5912,-5.5881,-5.5823,-5.588,-5.5879,-5.5961,-5.5972,-5.6001,-5.6092,-5.6098,-5.6055,-5.6059,-5.6061,-5.6063,0,0,0,0,0,0,0,-5.5552,-5.5436,-5.5671,-5.5722,-5.5728,-5.5819,-5.5822,-5.5824,-5.5881,-5.5881,-5.588,-5.588,-5.6022,-5.6029,-5.6035,-5.6085,0,0,-5.6054,-5.6057,0,0,0,0,0,0,0,0,-5.543,-5.5434,-5.5672,-5.5674,-5.5676,-5.582,-5.5822,-5.5824,-5.5881,-5.5881,-5.588,-5.588,-5.6024,-5.6029,-5.6034,0,0,0,0,0,0,0,0,0,0,0,0,0,0,0,-5.5672,-5.5673,0,-5.582,-5.5822,-5.5823,-5.5881,-5.5881,-5.588,-5.588,-5.6025,-5.603,-5.6034,0,0,0,0,0,0,0,0,0,0,0,0,0,0,0,0,0,0,0,0,0,0,0,0,0,0,0,0,0,0,0,0,0,0,0,0,0,0,0,0,0,0,0,0,0,0,0,0,0,0,0,0,0,0,0,0,0,0,0,0,0,0,0,0,0,0,0,0,0]}],[{"header":{"parameterUnit":"kt","parameterCategory":2,"dx":1,"dy":1,"la1":30.253999710083008,"la2":30.299108505249023,"lo1":-89.0895004272461,"lo2":-89.04439544677734,"nx":28,"ny":28,"refTime":"2022-09-22T21:00:00:Z","depth":0,"parameterNumber":2,"parameterNumberName":"V-component_of_WINDS"},"data":[-0.2224,-0.2139,-0.2081,-0.1957,-0.1884,-0.1789,-0.1737,-0.1664,-0.1591,-0.1472,-0.1393,-0.1328,-0.1233,-0.1126,-0.1038,-0.1011,-0.0978,-0.0988,-0.0954,-0.0958,-0.0955,-0.0952,-0.0967,-0.0982,-0.0982,-0.0957,-0.0957,-0.0957,-0.2227,-0.2154,-0.2072,-0.1954,-0.1883,-0.1837,-0.174,-0.1684,-0.1601,-0.1511,-0.1431,-0.1323,-0.123,-0.113,-0.1031,-0.099,-0.0963,-0.0968,-0.0969,-0.0954,-0.0957,-0.0974,-0.0991,-0.0991,-0.0991,-0.0991,-0.0991,-0.0991,-0.2217,-0.2169,-0.2064,-0.1974,-0.19,-0.1821,-0.1765,-0.1685,-0.1605,-0.1495,-0.1443,-0.1349,-0.1249,-0.1104,-0.1042,-0.0966,-0.0952,-0.0939,-0.0935,-0.0933,-0.0937,-0.0976,-0.0948,-0.0948,-0.0947,-0.0947,-0.0947,0,-0.2192,-0.2146,-0.2065,-0.1966,-0.1898,-0.1816,-0.1732,-0.1696,-0.1583,-0.1522,-0.1429,-0.1366,-0.1242,-0.1148,-0.1044,-0.0981,-0.0928,-0.0918,-0.0908,-0.093,-0.0963,-0.0942,-0.0946,-0.092,-0.0919,-0.0919,-0.0918,-0.0918,-0.2176,-0.2128,-0.1991,-0.1941,-0.1881,-0.1803,-0.1745,-0.1649,-0.1592,-0.1474,-0.1437,-0.1342,-0.1261,-0.1124,-0.1033,-0.0941,-0.0914,-0.091,-0.09,-0.0923,-0.0911,-0.0914,-0.0907,-0.0913,-0.0914,-0.0915,-0.0915,0,-0.2172,-0.2078,-0.1986,-0.1856,-0.1821,-0.1776,-0.1664,-0.1614,-0.1542,-0.1462,-0.1438,-0.1327,-0.1238,-0.1147,-0.1029,-0.0984,-0.0907,-0.0885,-0.0939,-0.0929,-0.0914,-0.0916,-0.0885,-0.0875,-0.0861,-0.0861,-0.0861,0,-0.2121,-0.2062,-0.1926,-0.1878,-0.1809,-0.1713,-0.1648,-0.158,-0.1493,-0.1429,-0.1355,-0.1297,-0.119,-0.1119,-0.1053,-0.0974,-0.0953,-0.0913,-0.0896,-0.0918,-0.0923,-0.0886,-0.0885,-0.0863,-0.0863,-0.0863,-0.0863,0,-0.2123,-0.1983,-0.1904,-0.1857,-0.1713,-0.1678,-0.1617,-0.1519,-0.1464,-0.1378,-0.1341,-0.1249,-0.1199,-0.1128,-0.1044,-0.1041,-0.0947,-0.0925,-0.0906,-0.0908,-0.0889,-0.0891,-0.0887,-0.0863,-0.0864,-0.0864,-0.0864,0,-0.2067,-0.1981,-0.1882,-0.1759,-0.1726,-0.1676,-0.1577,-0.1512,-0.1415,-0.1369,-0.1301,-0.1241,-0.1167,-0.1151,-0.1046,-0.1065,-0.1019,-0.0975,-0.0972,-0.0959,-0.0943,-0.0951,-0.0958,-0.0954,-0.0947,-0.0948,-0.0948,0,-0.2093,-0.1969,-0.1886,-0.1794,-0.1723,-0.1642,-0.1584,-0.1501,-0.1435,-0.1366,-0.1294,-0.1217,-0.1186,-0.115,-0.111,-0.1033,-0.1008,-0.1034,-0.0935,-0.0932,-0.096,-0.0966,-0.0989,-0.0967,-0.0956,-0.0955,-0.0955,0,-0.2102,-0.1928,-0.1918,-0.186,-0.1734,-0.1676,-0.161,-0.1512,-0.147,-0.1387,-0.1327,-0.1219,-0.119,-0.1132,-0.1074,-0.1037,-0.1022,-0.1012,-0.1008,-0.1015,-0.0954,-0.0975,-0.0972,-0.0991,-0.099,-0.0989,-0.0961,0,-0.2034,-0.1961,-0.193,-0.1807,-0.1748,-0.1687,-0.1589,-0.154,-0.1489,-0.1421,-0.1335,-0.1246,-0.1148,-0.1122,-0.1073,-0.102,-0.1014,-0.0986,-0.0963,-0.0969,-0.0957,-0.0952,-0.0988,-0.0987,-0.0986,-0.0985,0,0,-0.2081,-0.1975,-0.1887,-0.1819,-0.1764,-0.1681,-0.1624,-0.1561,-0.1437,-0.14,-0.1387,-0.1222,-0.115,-0.1056,-0.105,-0.1013,-0.0993,-0.0996,-0.0967,-0.0966,-0.0964,-0.0953,-0.095,-0.0983,-0.0983,-0.0983,-0.0982,0,-0.2036,-0.1963,-0.1908,-0.1838,-0.1732,-0.1663,-0.165,-0.1531,-0.1485,-0.1401,-0.1335,-0.1273,-0.1146,-0.1077,-0.1025,-0.1005,-0.0959,-0.0983,-0.1003,-0.0961,-0.0961,-0.096,-0.095,-0.0948,-0.098,-0.098,-0.098,0,-0.2025,-0.1937,-0.19,-0.1772,-0.1702,-0.1633,-0.1584,-0.1516,-0.1463,-0.138,-0.1298,-0.1236,-0.1137,-0.1062,-0.1026,-0.1012,-0.0933,-0.0943,-0.0947,-0.0941,-0.0895,-0.0895,-0.0895,-0.0896,-0.0896,-0.0896,0,0,-0.2,-0.1932,-0.1808,-0.1755,-0.1715,-0.1612,-0.1567,-0.1511,-0.1424,-0.1389,-0.1309,-0.1226,-0.115,-0.1103,-0.1028,-0.096,-0.0931,-0.0937,-0.0941,-0.0944,-0.094,-0.0896,-0.0896,-0.0896,-0.0896,-0.0896,0,0,-0.1988,-0.1841,-0.1805,-0.1731,-0.1649,-0.1524,-0.1495,-0.1448,-0.137,-0.1367,-0.1271,-0.1246,-0.1174,-0.1117,-0.1132,-0.1018,-0.0998,-0.0992,-0.1058,-0.1062,-0.1065,-0.108,-0.1071,0,0,0,0,0,-0.1891,-0.1859,-0.1827,-0.18,-0.1639,-0.1542,-0.152,-0.144,-0.1426,-0.1404,-0.1329,-0.1284,-0.1104,-0.1116,-0.1091,-0.1075,-0.0901,-0.09,-0.0899,-0.0967,-0.0972,-0.0976,0,0,0,0,0,0,-0.188,-0.1847,-0.1828,-0.1703,-0.1666,-0.1542,-0.15,-0.1477,-0.1426,-0.1418,-0.13,-0.128,-0.1211,-0.1123,-0.1102,-0.1088,-0.1078,-0.09,-0.09,-0.0899,-0.0969,-0.0973,-0.0976,0,0,0,0,0,-0.187,-0.1844,-0.1606,-0.1703,-0.1671,-0.1555,-0.1501,-0.1481,-0.144,-0.1324,-0.1303,-0.1384,-0.1213,-0.1189,-0.111,-0.11,-0.1092,-0.1084,-0.09,-0.0899,-0.0899,-0.0971,0,0,0,0,0,0,-0.1863,-0.1826,-0.1598,-0.1585,-0.1709,-0.1561,-0.1535,-0.1485,-0.1348,-0.1327,-0.1404,-0.14,-0.1213,-0.1195,-0.1178,-0.1108,-0.1103,-0.1095,-0.1091,-0.0899,-0.0899,-0.0899,0,0,0,0,0,0,-0.1839,-0.1816,-0.1591,-0.1604,-0.1592,-0.1566,-0.1543,-0.1465,-0.1347,-0.1435,-0.1427,-0.1404,-0.124,-0.1199,-0.1186,-0.1067,-0.1112,-0.1104,-0.1099,-0.1096,-0.0899,-0.0899,0,0,0,0,0,0,-0.1828,-0.1807,-0.1607,-0.1598,-0.1587,-0.1437,-0.1496,-0.1336,-0.1357,-0.1443,-0.1357,-0.1356,-0.1245,-0.123,-0.1191,-0.1079,-0.107,-0.1112,-0.1107,-0.1103,-0.1101,0,0,0,0,0,0,0,-0.1819,-0.1975,-0.1674,-0.1592,-0.1583,-0.1467,-0.1463,-0.146,-0.1357,-0.1357,-0.1357,-0.1357,-0.1153,-0.1145,-0.1137,-0.1089,0,0,-0.1112,-0.1109,0,0,0,0,0,0,0,0,-0.1982,-0.1976,-0.1674,-0.1671,-0.1668,-0.1466,-0.1463,-0.146,-0.1357,-0.1357,-0.1357,-0.1357,-0.1151,-0.1145,-0.1138,0,0,0,0,0,0,0,0,0,0,0,0,0,0,0,-0.1673,-0.1671,0,-0.1466,-0.1463,-0.1461,-0.1357,-0.1357,-0.1357,-0.1357,-0.1149,-0.1144,-0.1139,0,0,0,0,0,0,0,0,0,0,0,0,0,0,0,0,0,0,0,0,0,0,0,0,0,0,0,0,0,0,0,0,0,0,0,0,0,0,0,0,0,0,0,0,0,0,0,0,0,0,0,0,0,0,0,0,0,0,0,0,0,0,0,0,0,0,0,0,0]}]]]